User: anonymous   Login
Location: Lake Arresoe
(56.0000°N, 12.5000°E)
Time: 08:27:24
(UTC+01:00)
Language:

NOAA 16 DEB - Orbit

View from above orbital plane
View from above orbital plane
View from above satellite
View from above satellite

Ground track
Ground track

The orbit data is extracted from the following two-line orbital elements,

1 41095U 00055BE  22028.71669287  .00004133  00000-0  14548-2 0  9994
2 41095  98.9535 198.5257 0048536  58.5161 302.0752 14.34746814321354
Epoch (UTC): 28 January 2022 17:12:02
Eccentricity: 0.0048536
inclination: 98.9535°
perigee height: 741 km
apogee height: 810 km
right ascension of ascending node: 198.5257°
argument of perigee: 58.5161°
revolutions per day: 14.34746814
mean anomaly at epoch: 302.0752°
orbit number at epoch: 32135

The dashed part of the orbit path shows where the satellite is in the earth's shadow,  

DLR